[[{"header":{"parameterUnit":"m.s-1","parameterCategory":1,"la1":30.2991,"la2":30.254,"lo1":-89.0895,"lo2":-89.0444,"dy":0.0017,"dx":0.0017,"nx":28,"ny":28,"refTime":"2023-09-27T09:00:00:Z","depth":0,"parameterNumber":2,"parameterNumberName":"U-component_of_WINDS"},"data":[0,0,0,0,0,0,0,0,0,0,0,0,0,0,0,0,0,0,0,0,0,0,0,0,0,0,0,0,0,0,0,0,0,0,0,0,0,0,0,0,0,0,0,0,0,0,0,0,0,0,0,0,0,0,0,0,0,0,-4.5302,-4.5304,0,-4.5426,-4.5428,-4.5429,-4.5371,-4.5368,-4.5365,-4.5362,-4.5491,-4.5497,-4.5504,0,0,0,0,0,0,0,0,0,0,0,0,0,-4.5017,-4.5022,-4.5302,-4.5304,-4.5305,-4.5426,-4.5428,-4.543,-4.5372,-4.5368,-4.5364,-4.5361,-4.5489,-4.5497,-4.5504,0,0,0,0,0,0,0,0,0,0,0,0,0,-4.5141,-4.5024,-4.5302,-4.5291,-4.5291,-4.5426,-4.5428,-4.543,-4.5373,-4.5368,-4.5363,-4.5359,-4.5487,-4.5496,-4.5505,-4.5658,0,0,-4.5535,-4.5539,0,0,0,0,0,0,0,0,-4.5134,-4.5151,-4.5291,-4.5292,-4.5292,-4.5379,-4.5375,-4.5507,-4.5374,-4.5342,-4.5362,-4.5357,-4.5458,-4.5469,-4.5503,-4.5665,-4.567,-4.5535,-4.5541,-4.5545,-4.5548,0,0,0,0,0,0,0,-4.5125,-4.5146,-4.5351,-4.5293,-4.5294,-4.5281,-4.5293,-4.5399,-4.5425,-4.5344,-4.534,-4.5356,-4.5457,-4.5494,-4.5506,-4.5672,-4.5535,-4.5544,-4.5549,-4.5553,-4.5968,-4.5973,0,0,0,0,0,0,-4.5117,-4.5139,-4.5347,-4.5355,-4.52,-4.5289,-4.5303,-4.5356,-4.5423,-4.5429,-4.536,-4.5353,-4.548,-4.5495,-4.551,-4.5696,-4.5545,-4.5554,-4.556,-4.5962,-4.5969,-4.5974,0,0,0,0,0,0,-4.5111,-4.5136,-4.5342,-4.5246,-4.5271,-4.5299,-4.5359,-4.5361,-4.5397,-4.5435,-4.5439,-4.5393,-4.5477,-4.5496,-4.5622,-4.5699,-4.5558,-4.5567,-4.5956,-4.5964,-4.5972,-4.6067,0,0,0,0,0,0,-4.5103,-4.5134,-4.5192,-4.5248,-4.5277,-4.5452,-4.5363,-4.5366,-4.5414,-4.5406,-4.5467,-4.5473,-4.5475,-4.5608,-4.5632,-4.571,-4.5575,-4.5949,-4.596,-4.5969,-4.6057,-4.6077,-4.6094,0,0,0,0,0,-4.5093,-4.5214,-4.5195,-4.5221,-4.535,-4.5457,-4.5473,-4.5473,-4.542,-4.5479,-4.5504,-4.5471,-4.5686,-4.5622,-4.5648,-4.573,-4.5945,-4.5957,-4.5968,-4.6049,-4.6073,-4.6094,0,0,0,0,0,0,-4.5167,-4.5221,-4.5201,-4.5343,-4.5396,-4.5447,-4.5521,-4.5498,-4.5567,-4.5557,-4.5554,-4.5568,-4.5699,-4.5726,-4.5653,-4.5882,-4.5808,-4.5825,-4.586,-4.5883,-4.5902,-4.5893,-4.5582,0,0,0,0,0,-4.52,-4.5282,-4.5325,-4.5446,-4.5474,-4.5493,-4.554,-4.5535,-4.5589,-4.5611,-4.5645,-4.5699,-4.578,-4.5833,-4.5908,-4.606,-4.6074,-4.6129,-4.6148,-4.6163,-4.6179,-4.6263,-4.6289,-4.6013,-4.6013,-4.6013,0,0,-4.5269,-4.5308,-4.536,-4.5462,-4.5502,-4.5588,-4.5512,-4.5606,-4.567,-4.5626,-4.5747,-4.5774,-4.5834,-4.5974,-4.6038,-4.6002,-4.6258,-4.6178,-4.619,-4.6198,-4.6278,-4.6304,-4.6328,-4.6021,-4.602,-4.6019,0,0,-4.5439,-4.5476,-4.5583,-4.5624,-4.5686,-4.5698,-4.5724,-4.5778,-4.5794,-4.5916,-4.5885,-4.5961,-4.6099,-4.6144,-4.6185,-4.6373,-4.6347,-4.6398,-4.6496,-4.6578,-4.66,-4.6619,-4.6689,-4.6713,-4.6413,-4.6413,-4.6414,0,-4.5517,-4.5645,-4.564,-4.5737,-4.5784,-4.5747,-4.5855,-4.5896,-4.598,-4.6013,-4.5971,-4.6144,-4.6182,-4.6333,-4.6379,-4.6413,-4.6444,-4.6392,-4.6597,-4.6616,-4.6634,-4.6701,-4.6726,-4.6419,-4.6419,-4.6418,-4.6418,0,-4.5739,-4.5828,-4.5907,-4.5988,-4.6043,-4.6146,-4.6158,-4.6214,-4.6204,-4.6221,-4.6346,-4.6391,-4.6476,-4.6511,-4.6502,-4.6662,-4.6638,-4.6596,-4.6522,-4.6667,-4.6729,-4.6754,-4.6428,-4.6426,-4.6424,-4.6423,0,0,-4.596,-4.6038,-4.6067,-4.6105,-4.617,-4.6239,-4.634,-4.6423,-4.6473,-4.6531,-4.6617,-4.6735,-4.6698,-4.6744,-4.674,-4.6812,-4.6961,-4.6763,-4.6764,-4.68,-4.7143,-4.7175,-4.7204,-4.6943,-4.6948,-4.6951,-4.7138,0,-4.6137,-4.6313,-4.6312,-4.6476,-4.656,-4.6526,-4.6614,-4.6664,-4.6683,-4.6757,-4.6777,-4.6862,-4.6805,-4.6834,-4.6903,-4.6928,-4.703,-4.6915,-4.7025,-4.7029,-4.7013,-4.7236,-4.727,-4.7444,-4.7162,-4.7166,-4.7169,0,-4.6366,-4.6433,-4.6605,-4.666,-4.6695,-4.6774,-4.6851,-4.6921,-4.6978,-4.6987,-4.7039,-4.7024,-4.7129,-4.7049,-4.7194,-4.7115,-4.716,-4.7179,-4.7186,-4.7198,-4.7109,-4.7257,-4.75,-4.7527,-4.7207,-4.7204,-4.7201,0,-4.6514,-4.6646,-4.6767,-4.6799,-4.6865,-4.6922,-4.6952,-4.7004,-4.7055,-4.7122,-4.7155,-4.7233,-4.7277,-4.7338,-4.7345,-4.7286,-4.7492,-4.7412,-4.7504,-4.7504,-4.755,-4.7548,-4.7806,-4.7575,-4.7575,-4.7574,-4.7574,0,-4.6712,-4.6819,-4.6834,-4.6908,-4.7028,-4.7026,-4.7145,-4.717,-4.7217,-4.7296,-4.7271,-4.7347,-4.735,-4.7428,-4.7435,-4.7555,-4.7574,-4.7585,-4.7586,-4.7589,-4.7588,-4.762,-4.7609,-4.7581,-4.758,-4.7578,-4.7577,0,-4.6897,-4.6911,-4.7041,-4.7093,-4.7108,-4.7194,-4.7239,-4.7311,-4.7327,-4.7428,-4.7452,-4.7478,-4.7568,-4.7581,-4.7686,-4.7691,-4.7836,-4.7823,-4.7817,-4.7816,-4.7907,-4.79,-4.8198,-4.8238,-4.7978,-4.7981,-4.7983,0,-4.7024,-4.7106,-4.7167,-4.7218,-4.7252,-4.7335,-4.7386,-4.7387,-4.7442,-4.7513,-4.7577,-4.7665,-4.7735,-4.7882,-4.791,-4.7992,-4.7982,-4.8081,-4.7994,-4.7995,-4.7987,-4.7983,-4.7992,-4.8098,-4.8101,-4.8103,-4.8105,0,-4.7249,-4.7252,-4.7327,-4.7405,-4.7466,-4.7528,-4.7585,-4.7629,-4.7638,-4.7701,-4.7793,-4.7848,-4.7956,-4.8044,-4.8125,-4.8157,-4.8134,-4.8132,-4.8158,-4.8163,-4.8157,-4.8164,-4.7865,-4.8126,-4.8124,-4.8122,-4.8121,-4.812,-4.7411,-4.7483,-4.7537,-4.7622,-4.7665,-4.772,-4.779,-4.7815,-4.7892,-4.798,-4.7976,-4.8078,-4.8134,-4.8239,-4.8277,-4.8358,-4.8326,-4.8363,-4.8372,-4.8382,-4.8393,-4.8142,-4.8372,-4.8372,-4.8371,-4.8371,-4.837,0,-4.7636,-4.767,-4.7747,-4.7829,-4.7896,-4.7867,-4.793,-4.7988,-4.8078,-4.8131,-4.8201,-4.8308,-4.8394,-4.8429,-4.8514,-4.8572,-4.8564,-4.8594,-4.8591,-4.86,-4.8415,-4.8385,-4.86,-4.86,-4.8599,-4.8599,-4.8599,-4.8599,-4.7762,-4.7883,-4.7892,-4.8035,-4.8067,-4.8167,-4.8205,-4.8256,-4.8299,-4.842,-4.8491,-4.8513,-4.856,-4.8648,-4.8726,-4.8734,-4.8767,-4.8803,-4.8808,-4.8635,-4.8612,-4.859,-4.8562,-4.881,-4.881,-4.8985,-4.8987,-4.8988]},{"header":{"parameterUnit":"m.s-1","parameterCategory":1,"la1":30.2991,"la2":30.254,"lo1":-89.0895,"lo2":-89.0444,"dy":0.0017,"dx":0.0017,"nx":28,"ny":28,"refTime":"2023-09-27T09:00:00:Z","depth":0,"parameterNumber":3,"parameterNumberName":"V-component_of_WINDS"},"data":[0,0,0,0,0,0,0,0,0,0,0,0,0,0,0,0,0,0,0,0,0,0,0,0,0,0,0,0,0,0,0,0,0,0,0,0,0,0,0,0,0,0,0,0,0,0,0,0,0,0,0,0,0,0,0,0,0,0,-3.7288,-3.7288,0,-3.7287,-3.7287,-3.7287,-3.7212,-3.721,-3.7208,-3.7206,-3.7207,-3.7209,-3.7211,0,0,0,0,0,0,0,0,0,0,0,0,0,-3.7225,-3.7226,-3.7288,-3.7288,-3.7288,-3.7287,-3.7287,-3.7287,-3.7212,-3.721,-3.7208,-3.7205,-3.7207,-3.7209,-3.7211,0,0,0,0,0,0,0,0,0,0,0,0,0,-3.7241,-3.7227,-3.7288,-3.725,-3.7247,-3.7287,-3.7287,-3.7287,-3.7213,-3.721,-3.7207,-3.7204,-3.7206,-3.7209,-3.7211,-3.7288,0,0,-3.722,-3.7221,0,0,0,0,0,0,0,0,-3.724,-3.7243,-3.7256,-3.7253,-3.7249,-3.7247,-3.7265,-3.7287,-3.7214,-3.7226,-3.7206,-3.7203,-3.7223,-3.7224,-3.723,-3.7288,-3.7288,-3.722,-3.7222,-3.7223,-3.7224,0,0,0,0,0,0,0,-3.7239,-3.7243,-3.7287,-3.7256,-3.7252,-3.7234,-3.7233,-3.7269,-3.7241,-3.7225,-3.7219,-3.722,-3.722,-3.7228,-3.723,-3.7288,-3.722,-3.7222,-3.7224,-3.7225,-3.7406,-3.7409,0,0,0,0,0,0,-3.7243,-3.7242,-3.7287,-3.7287,-3.7237,-3.7237,-3.7236,-3.725,-3.724,-3.7236,-3.7223,-3.7217,-3.7225,-3.7227,-3.723,-3.7318,-3.7223,-3.7226,-3.7227,-3.7403,-3.7407,-3.741,0,0,0,0,0,0,-3.7242,-3.7248,-3.7288,-3.7263,-3.7267,-3.7241,-3.7258,-3.7252,-3.7259,-3.7239,-3.7233,-3.7235,-3.7222,-3.7226,-3.7273,-3.7317,-3.7227,-3.7229,-3.7399,-3.7404,-3.7409,-3.7496,0,0,0,0,0,0,-3.724,-3.7248,-3.7277,-3.7265,-3.7269,-3.7332,-3.7261,-3.7254,-3.7264,-3.7256,-3.7249,-3.7245,-3.722,-3.727,-3.7276,-3.7319,-3.7231,-3.7395,-3.7402,-3.7407,-3.7489,-3.7503,-3.7515,0,0,0,0,0,-3.7238,-3.7302,-3.7278,-3.7284,-3.7304,-3.7334,-3.7337,-3.7306,-3.7268,-3.7297,-3.7283,-3.7246,-3.7311,-3.7275,-3.7282,-3.7326,-3.7393,-3.74,-3.7407,-3.7483,-3.75,-3.7514,0,0,0,0,0,0,-3.732,-3.7299,-3.7274,-3.7335,-3.7337,-3.7322,-3.7357,-3.7325,-3.7338,-3.7331,-3.7292,-3.7291,-3.7345,-3.734,-3.7301,-3.7399,-3.7345,-3.7354,-3.7401,-3.7417,-3.7429,-3.743,-3.7234,0,0,0,0,0,-3.7345,-3.7371,-3.7352,-3.7408,-3.741,-3.7383,-3.7395,-3.7371,-3.7372,-3.7373,-3.7363,-3.7365,-3.7386,-3.7401,-3.7419,-3.7487,-3.7484,-3.7521,-3.7534,-3.7544,-3.7553,-3.7588,-3.7604,-3.7434,-3.7434,-3.7433,0,0,-3.7398,-3.739,-3.7409,-3.7424,-3.7423,-3.745,-3.7385,-3.7417,-3.7437,-3.7378,-3.7422,-3.7415,-3.7415,-3.7473,-3.7498,-3.7471,-3.7599,-3.7553,-3.7562,-3.7565,-3.7597,-3.7613,-3.7628,-3.7438,-3.7437,-3.7437,0,0,-3.7508,-3.7504,-3.755,-3.7549,-3.7548,-3.7529,-3.754,-3.753,-3.7522,-3.7566,-3.7522,-3.7545,-3.7582,-3.7584,-3.759,-3.7698,-3.7664,-3.7705,-3.7773,-3.7808,-3.7821,-3.7833,-3.7872,-3.7886,-3.7713,-3.7713,-3.7713,0,-3.7573,-3.7613,-3.7578,-3.7613,-3.7621,-3.7566,-3.7613,-3.7614,-3.7619,-3.7626,-3.7594,-3.7639,-3.7635,-3.7693,-3.7719,-3.7725,-3.7737,-3.7706,-3.7822,-3.7834,-3.7844,-3.7881,-3.7895,-3.7718,-3.7718,-3.7717,-3.7717,0,-3.7694,-3.7722,-3.7759,-3.7764,-3.7776,-3.7817,-3.7787,-3.7803,-3.7778,-3.7763,-3.7808,-3.7801,-3.7817,-3.7828,-3.7804,-3.7882,-3.7865,-3.7829,-3.7774,-3.7866,-3.79,-3.7914,-3.7725,-3.7724,-3.7722,-3.7721,0,0,-3.7858,-3.7841,-3.7855,-3.7856,-3.785,-3.7871,-3.7908,-3.7923,-3.7937,-3.7942,-3.7973,-3.8004,-3.797,-3.7977,-3.7952,-3.7982,-3.8069,-3.7942,-3.7941,-3.7966,-3.8155,-3.8183,-3.82,-3.8045,-3.8048,-3.805,-3.8155,0,-3.7964,-3.8027,-3.7995,-3.8063,-3.8088,-3.8036,-3.8069,-3.8068,-3.8055,-3.8074,-3.8059,-3.8082,-3.8035,-3.8039,-3.8067,-3.8053,-3.8106,-3.8044,-3.8074,-3.8076,-3.8077,-3.8217,-3.8248,-3.8347,-3.8168,-3.817,-3.8172,0,-3.8098,-3.8107,-3.8176,-3.8164,-3.8173,-3.8203,-3.8213,-3.8232,-3.823,-3.8218,-3.8225,-3.8193,-3.8228,-3.8173,-3.8222,-3.8181,-3.8191,-3.8186,-3.8189,-3.8191,-3.813,-3.8225,-3.8378,-3.8393,-3.8192,-3.819,-3.8189,0,-3.821,-3.824,-3.8285,-3.8288,-3.8274,-3.8296,-3.8292,-3.8287,-3.8297,-3.8306,-3.8312,-3.8325,-3.8333,-3.8343,-3.8315,-3.8278,-3.8368,-3.8311,-3.836,-3.8361,-3.8383,-3.8382,-3.8541,-3.8388,-3.8388,-3.8387,-3.8387,0,-3.8333,-3.8378,-3.8335,-3.8364,-3.8412,-3.8374,-3.8423,-3.8413,-3.8409,-3.8434,-3.8389,-3.8414,-3.8375,-3.8396,-3.8374,-3.8418,-3.8422,-3.8413,-3.8407,-3.8418,-3.8419,-3.8425,-3.8418,-3.8391,-3.839,-3.839,-3.8389,0,-3.8469,-3.8442,-3.8487,-3.847,-3.8467,-3.8503,-3.8488,-3.8513,-3.8496,-3.8528,-3.8534,-3.8507,-3.8529,-3.8501,-3.8521,-3.8506,-3.8567,-3.855,-3.8567,-3.8563,-3.8614,-3.861,-3.8783,-3.8804,-3.8637,-3.8639,-3.864,0,-3.855,-3.8582,-3.8568,-3.8581,-3.8579,-3.8601,-3.8611,-3.8574,-3.8586,-3.8586,-3.8611,-3.8629,-3.8642,-3.8679,-3.8662,-3.8677,-3.866,-3.872,-3.8662,-3.8672,-3.8662,-3.8661,-3.8664,-3.8732,-3.8734,-3.8736,-3.8737,0,-3.8696,-3.8681,-3.8696,-3.8707,-3.8719,-3.8726,-3.873,-3.8743,-3.8705,-3.8721,-3.8742,-3.8752,-3.8771,-3.879,-3.8799,-3.8795,-3.876,-3.8755,-3.8767,-3.8779,-3.8788,-3.8784,-3.86,-3.8752,-3.875,-3.8749,-3.8748,-3.8748,-3.8807,-3.8834,-3.8827,-3.8845,-3.8844,-3.8848,-3.887,-3.8855,-3.8872,-3.8884,-3.8862,-3.8889,-3.8885,-3.8894,-3.8893,-3.8914,-3.8889,-3.8906,-3.8911,-3.8916,-3.8924,-3.8784,-3.8916,-3.8915,-3.8915,-3.8914,-3.8914,0,-3.8952,-3.8944,-3.8962,-3.8967,-3.8982,-3.8946,-3.8947,-3.8962,-3.8986,-3.8985,-3.8998,-3.9022,-3.9039,-3.9022,-3.9036,-3.9056,-3.9041,-3.9061,-3.906,-3.906,-3.8946,-3.8934,-3.9074,-3.9074,-3.9074,-3.9074,-3.9074,-3.9074,-3.9029,-3.9072,-3.9055,-3.9097,-3.9089,-3.9114,-3.9118,-3.9122,-3.912,-3.9149,-3.9163,-3.9151,-3.9144,-3.9157,-3.9171,-3.9165,-3.9173,-3.92,-3.9189,-3.9083,-3.9068,-3.9053,-3.9042,-3.9201,-3.9202,-3.9301,-3.9302,-3.9303]}]]